Location: Wildlife_Club
(35.6000°N, 81.4330°W)
Time: 04:38:51
(UTC-04:00)

Amateur Radio Satellites - All Passes

Search period start: 21 April 2014 04:08
Search period end: 22 April 2014 04:08
Location: Wildlife_Club, 35.6000°N, 81.4330°W

Satellite Date Start Highest point End Downlink Frequencies (MHz)
Time Altitude Azimuth
TMSAT-1 21 Apr 04:10:46 04:15:39 37° 98° (E) 04:20:31 436.925 FM
Uribyol 2 21 Apr 04:20:42 04:25:20 34° 290° (WNW) 04:29:58 436.500 FM
KITSAT 1 21 Apr 04:33:42 04:40:58 35° 309° (NW) 04:48:17 435.175 FM
RS-15 21 Apr 05:02:03 05:06:01 12° 98° (E) 05:09:56 29.354 - 29.394 USB, Beacon 29.352 USB
AO-27 21 Apr 05:03:20 05:06:06 15° 296° (WNW) 05:08:52 436.795 MHz FM
Gurwin Techsat 1B 21 Apr 05:03:21 05:08:25 46° 288° (WNW) 05:13:27 435.225 FM
AO-Echo 21 Apr 05:03:27 05:06:10 15° 295° (WNW) 05:08:52 ?
JAS-1B 21 Apr 05:14:12 05:19:51 67° 103° (ESE) 05:25:54 435.800 - 435.900 CW/SSB
ITAMSAT 1 21 Apr 05:14:27 05:16:15 12° 298° (WNW) 05:18:03 435.822 SSB
Uosat F 21 Apr 05:21:28 05:26:27 66° 102° (ESE) 05:31:23 435.120 FM
AO-7 21 Apr 05:46:30 05:54:44 63° 104° (ESE) 06:02:57 29.400 - 29.500 MHz
TMSAT-1 21 Apr 05:51:12 05:55:19 24° 293° (WNW) 05:59:27 436.925 FM
STRAND 1 21 Apr 06:24:31 06:28:29 23° 67° (ENE) 06:32:27 ?
MaSat-1 21 Apr 06:43:32 06:45:24 15° 62° (ENE) 06:47:26 437.345 MHz
AO-40 21 Apr 06:51:08 10:18:27 28° 133° (SE) 11:45:52 Beacon 2401.320
Hamsat 21 Apr 07:00:07 07:03:52 28° 96° (E) 07:07:36 145.90 MHz
Uosat F 21 Apr 07:02:26 07:04:38 13° 297° (WNW) 07:06:50 435.120 FM
RS-15 21 Apr 07:05:06 07:16:26 73° 115° (ESE) 07:27:22 29.354 - 29.394 USB, Beacon 29.352 USB
JAS-1B 21 Apr 07:07:17 07:09:59 14° 298° (WNW) 07:12:45 435.800 - 435.900 CW/SSB
AO-7 21 Apr 07:40:17 07:46:54 28° 301° (WNW) 07:53:33 29.400 - 29.500 MHz
PANSAT 21 Apr 07:48:34 07:50:45 15° 162° (SSE) 07:52:57 not established
STRAND 1 21 Apr 08:02:45 08:07:26 36° 262° (W) 08:12:08 ?
MaSat-1 21 Apr 08:21:01 08:23:42 24° 250° (WSW) 08:26:48 437.345 MHz
JAS-2 21 Apr 08:24:39 08:30:10 68° 102° (ESE) 08:36:18 435.800 - 435.900 CW/SSB, 435.910 FM
Hamsat 21 Apr 08:36:19 08:39:40 22° 290° (WNW) 08:43:01 145.90 MHz
Sapphire 21 Apr 08:44:00 08:45:28 11° 45° (NE) 08:46:57 437.095 MHz 1200 baud AX-25 AFSK
SO-67 21 Apr 08:46:52 08:50:22 79° 283° (WNW) 08:53:51 435.3500 MHz FM
RS-15 21 Apr 09:19:58 09:29:41 33° 317° (NW) 09:39:14 29.354 - 29.394 USB, Beacon 29.352 USB
PCSat 21 Apr 09:26:24 09:30:56 26° 54° (NE) 09:35:25 145.825 MHz
PANSAT 21 Apr 09:27:10 09:30:27 26° 174° (S) 09:33:44 not established
HO-68 21 Apr 10:05:48 10:12:34 43° 100° (E) 10:19:17 435.675 MHz FM
JAS-2 21 Apr 10:11:54 10:14:49 15° 295° (WNW) 10:17:53 435.800 - 435.900 CW/SSB, 435.910 FM
Oscar 11 21 Apr 10:18:12 10:21:11 18° 94° (E) 10:24:08 145.825 FM, Beacon 2401.500 USB
Sapphire 21 Apr 10:24:22 10:29:48 77° 63° (ENE) 10:35:11 437.095 MHz 1200 baud AX-25 AFSK
KITSAT 1 21 Apr 10:35:20 10:40:12 17° 39° (NE) 10:45:02 435.175 FM
PANSAT 21 Apr 11:07:00 11:10:14 25° 187° (S) 11:13:28 not established
PCSat 21 Apr 11:09:25 11:14:25 39° 250° (WSW) 11:19:23 145.825 MHz
Saudisat 1A 21 Apr 11:17:47 11:22:15 78° 300° (WNW) 11:26:44 436.775 MHz
RS-15 21 Apr 11:43:00 11:47:10 12° 351° (N) 11:51:20 29.354 - 29.394 USB, Beacon 29.352 USB
FUNcube-1 21 Apr 11:49:00 11:53:16 63° 101° (E) 11:57:37 145.950 - 145.970 MHz USB
Oscar 11 21 Apr 11:53:30 11:57:25 33° 288° (WNW) 12:01:20 145.825 FM, Beacon 2401.500 USB
HO-68 21 Apr 11:53:48 12:00:01 33° 295° (WNW) 12:06:14 435.675 MHz FM
Sapphire 21 Apr 12:10:49 12:12:29 11° 258° (WSW) 12:14:09 437.095 MHz 1200 baud AX-25 AFSK
KITSAT 1 21 Apr 12:29:01 12:37:07 72° 61° (ENE) 12:45:08 435.175 FM
PANSAT 21 Apr 12:48:01 12:49:54 13° 199° (SSW) 12:51:48 not established
Oscar 19 21 Apr 13:10:16 13:13:37 18° 65° (ENE) 13:16:59 437.125 CW, 437.150 USB
Oscar 16 21 Apr 13:18:13 13:22:10 23° 67° (ENE) 13:26:09 437.025 USB, Beacon 2401.1428
FUNcube-1 21 Apr 13:28:48 13:29:10 10° 295° (WNW) 13:29:32 145.950 - 145.970 MHz USB
Uribyol 2 21 Apr 13:56:51 14:01:11 28° 68° (ENE) 14:05:32 436.500 FM
RS-15 21 Apr 13:58:56 14:06:11 19° 29° (NNE) 14:13:28 29.354 - 29.394 USB, Beacon 29.352 USB
Oscar 10/S400 21 Apr 13:59:05 15:25:43 26° 268° (W) 18:22:37 145.825 - 145.975 CW/USB, Beacon 145.810 USB
ISS 21 Apr 14:10:19 14:13:06 25° 131° (SE) 14:15:55 145.800 FM
SO-50 21 Apr 14:24:38 14:26:56 14° 108° (ESE) 14:29:15 436.795 FM
KITSAT 1 21 Apr 14:26:01 14:31:41 21° 257° (WSW) 14:37:20 435.175 FM
AO-Echo 21 Apr 14:32:49 14:37:50 48° 73° (ENE) 14:42:44 ?
AO-27 21 Apr 14:37:13 14:42:22 69° 74° (ENE) 14:47:32 436.795 MHz FM
Gurwin Techsat 1B 21 Apr 14:42:55 14:46:59 23° 67° (ENE) 14:51:03 435.225 FM
ITAMSAT 1 21 Apr 14:47:19 14:52:30 85° 76° (ENE) 14:57:42 435.822 SSB
Oscar 19 21 Apr 14:47:35 14:52:31 49° 260° (W) 14:57:32 437.125 CW, 437.150 USB
AO-7 21 Apr 14:56:08 14:58:57 12° 50° (NE) 15:01:46 29.400 - 29.500 MHz
Oscar 16 21 Apr 14:56:33 15:01:16 37° 262° (W) 15:06:01 437.025 USB, Beacon 2401.1428
TMSAT-1 21 Apr 15:28:37 15:33:36 44° 72° (ENE) 15:38:36 436.925 FM
Uribyol 2 21 Apr 15:36:04 15:40:32 30° 263° (W) 15:45:02 436.500 FM
ISS 21 Apr 15:46:50 15:49:46 28° 326° (NW) 15:52:42 145.800 FM
JAS-1B 21 Apr 15:55:06 16:02:48 49° 71° (ENE) 16:09:18 435.800 - 435.900 CW/SSB
OPAL 21 Apr 15:55:17 16:00:21 50° 102° (ESE) 16:05:23 ?
SO-50 21 Apr 16:02:42 16:07:02 50° 303° (WNW) 16:11:25 436.795 FM
RS-15 21 Apr 16:10:23 16:21:16 64° 56° (ENE) 16:32:26 29.354 - 29.394 USB, Beacon 29.352 USB
AO-Echo 21 Apr 16:13:19 16:16:45 18° 266° (W) 16:20:09 ?
AO-27 21 Apr 16:20:33 16:22:18 12° 269° (W) 16:24:03 436.795 MHz FM
Gurwin Techsat 1B 21 Apr 16:21:44 16:26:40 39° 262° (W) 16:31:38 435.225 FM
Uosat F 21 Apr 16:31:45 16:36:43 66° 74° (ENE) 16:41:42 435.120 FM
UOSAT-12 21 Apr 16:34:42 16:37:32 17° 109° (ESE) 16:40:25 437.025 FM, 437.400 FM
AO-7 21 Apr 16:42:00 16:50:08 65° 69° (ENE) 16:58:17 29.400 - 29.500 MHz
TMSAT-1 21 Apr 17:09:55 17:13:40 20° 266° (W) 17:17:26 436.925 FM
OPAL 21 Apr 17:35:17 17:38:48 19° 297° (WNW) 17:42:19 ?
JAS-1B 21 Apr 17:46:32 17:53:23 29° 262° (W) 17:59:23 435.800 - 435.900 CW/SSB
Hamsat 21 Apr 17:52:18 17:54:31 14° 67° (ENE) 17:56:45 145.90 MHz
UOSAT-12 21 Apr 18:12:56 18:17:17 45° 304° (NW) 18:21:44 437.025 FM, 437.400 FM
Uosat F 21 Apr 18:14:15 18:15:54 12° 268° (W) 18:17:33 435.120 FM
RS-15 21 Apr 18:23:41 18:32:51 32° 255° (WSW) 18:42:20 29.354 - 29.394 USB, Beacon 29.352 USB
JAS-2 21 Apr 18:36:16 18:40:06 19° 67° (ENE) 18:43:44 435.800 - 435.900 CW/SSB, 435.910 FM
AO-7 21 Apr 18:37:00 18:43:21 24° 265° (W) 18:49:44 29.400 - 29.500 MHz
SO-67 21 Apr 19:18:25 19:21:04 20° 71° (ENE) 19:23:43 435.3500 MHz FM
Hamsat 21 Apr 19:26:09 19:30:07 41° 262° (W) 19:34:08 145.90 MHz
Saudisat 1A 21 Apr 19:47:44 19:51:47 35° 54° (NE) 19:55:47 436.775 MHz
STRAND 1 21 Apr 20:15:51 20:20:58 85° 284° (WNW) 20:26:04 ?
JAS-2 21 Apr 20:19:13 20:24:55 49° 259° (W) 20:30:07 435.800 - 435.900 CW/SSB, 435.910 FM
HO-68 21 Apr 20:32:22 20:37:49 24° 61° (ENE) 20:43:17 435.675 MHz FM
ISS 21 Apr 20:41:57 20:43:46 14° 26° (NNE) 20:45:35 145.800 FM
MaSat-1 21 Apr 20:44:44 20:46:04 12° 109° (ESE) 20:47:21 437.345 MHz
SO-67 21 Apr 20:51:43 20:54:07 18° 265° (W) 20:56:33 435.3500 MHz FM
Oscar 11 21 Apr 21:13:15 21:13:46 10° 64° (ENE) 21:14:17 145.825 FM, Beacon 2401.500 USB
Saudisat 1A 21 Apr 21:27:56 21:31:07 20° 250° (WSW) 21:34:17 436.775 MHz
ISS 21 Apr 22:17:32 22:20:53 85° 223° (SW) 22:24:14 145.800 FM
HO-68 21 Apr 22:17:59 22:24:58 59° 258° (WSW) 22:32:02 435.675 MHz FM
MaSat-1 21 Apr 22:22:26 22:24:18 16° 297° (WNW) 22:26:03 437.345 MHz
FUNcube-1 21 Apr 22:43:12 22:46:59 33° 72° (ENE) 22:50:44 145.950 - 145.970 MHz USB
Oscar 11 21 Apr 22:45:08 22:49:23 62° 259° (W) 22:53:40 145.825 FM, Beacon 2401.500 USB
Sapphire 21 Apr 23:22:45 23:25:37 15° 104° (ESE) 23:28:30 437.095 MHz 1200 baud AX-25 AFSK
PCSat 22 Apr 00:04:51 00:09:52 41° 110° (ESE) 00:14:56 145.825 MHz
FUNcube-1 22 Apr 00:20:52 00:23:28 16° 266° (W) 00:26:05 145.950 - 145.970 MHz USB
SO-50 22 Apr 00:36:52 00:41:30 62° 59° (ENE) 00:46:11 436.795 FM
Sapphire 22 Apr 01:03:05 01:08:26 63° 298° (WNW) 01:13:49 437.095 MHz 1200 baud AX-25 AFSK
KITSAT 1 22 Apr 01:05:12 01:07:19 11° 99° (E) 01:09:26 435.175 FM
PCSat 22 Apr 01:49:01 01:53:25 25° 307° (NW) 01:57:50 145.825 MHz
Uribyol 2 22 Apr 02:14:18 02:16:17 12° 92° (E) 02:18:15 436.500 FM
SO-50 22 Apr 02:19:41 02:21:33 12° 252° (WSW) 02:23:25 436.795 FM
AO-Echo 22 Apr 02:44:25 02:47:34 18° 94° (E) 02:50:40 ?
UOSAT-12 22 Apr 02:45:04 02:49:47 67° 59° (ENE) 02:54:26 437.025 FM, 437.400 FM
KITSAT 1 22 Apr 02:53:17 03:01:21 75° 114° (ESE) 03:09:28 435.175 FM
AO-27 22 Apr 02:53:43 02:58:18 31° 97° (E) 03:02:51 436.795 MHz FM
Oscar 19 22 Apr 03:01:59 03:07:12 76° 102° (ESE) 03:12:23 437.125 CW, 437.150 USB
ITAMSAT 1 22 Apr 03:03:31 03:08:20 38° 99° (E) 03:13:08 435.822 SSB
Gurwin Techsat 1B 22 Apr 03:04:30 03:05:24 10° 90° (E) 03:06:19 435.225 FM
OPAL 22 Apr 03:07:21 03:12:18 63° 72° (ENE) 03:17:21 ?
Oscar 16 22 Apr 03:10:45 03:15:58 83° 284° (WNW) 03:21:10 437.025 USB, Beacon 2401.1428
TMSAT-1 22 Apr 03:48:07 03:52:11 22° 95° (E) 03:56:15 436.925 FM
Uribyol 2 22 Apr 03:51:01 03:56:09 67° 286° (WNW) 04:01:17 436.500 FM
